Flag for Greenland Weather past 2 weeks in Thule Air Base, Greenland

Now
32 °F

Sunny.


Feels Like: 26 °F
Forecast: N/A
Wind: 6 mph from Northwest

Location: Thule A. B.

Current Time: Sep 23, 2014 at 6:08:22 PM

Latest Report: Sep 23, 2014 at 4:58 PM


Visibility: N/A

Pressure: 29.65 "Hg

Humidity: 69%

Dew point: 23 °F

Location of Thule Air BaseLocation

Historic Weather in Thule Air Base — Graph

°F

Thule Air Base temperature yesterday

Maximum temperature yesterday: 30 °F (at 10:58 AM)
Minimum temperature yesterday: 28 °F (at 12:58 AM)
Average temperature yesterday: 29 °F

Past Weeks' High & Low Weather Summary

 TemperatureHumidityPressure
High41 °F (Sep 8, 4:58 PM)100% (Sep 19, 6:00 PM)29.99 "Hg (Sep 19, 6:00 PM)
Low24 °F (Sep 15, 5:58 AM)39% (Sep 8, 4:58 PM)29.21 "Hg (Sep 22, 3:58 AM)
Average32 °F77%29.58 "Hg
* Reported Sep 8 4:58 PM — Sep 23 4:58 PM, Thule Air Base, Weather by CustomWeather, © 2014

Note: Actual official high and low records may vary slightly from our data, if they occured in-between our weather recording intervals... More about our weather records

Advertising

Thule Air Base weather history for previous 24 hours

 ConditionsComfort  
Time TempWeatherWind HumidityBarometerVisibility
4:58 PM
Sep 23
32 °FSunny.6 mph69%29.65 "HgN/A
3:58 PM30 °FOvercast.9 mph80%29.69 "HgN/A
2:58 PM30 °FOvercast.5 mph86%29.73 "HgN/A
1:58 PM30 °FOvercast.6 mph80%29.75 "HgN/A
12:58 PM30 °FOvercast.8 mph80%29.78 "HgN/A
11:58 AM32 °FOvercast.8 mph69%29.79 "HgN/A
10:58 AM32 °FOvercast.10 mph64%29.81 "HgN/A
9:58 AM30 °FBroken clouds.14 mph79%29.82 "HgN/A
8:58 AM30 °FPartly cloudy.10 mph75%29.83 "HgN/A
7:58 AM30 °FPassing clouds.10 mph75%29.84 "HgN/A
6:58 AM28 °FPartly cloudy.14 mph80%29.83 "HgN/A
5:58 AM28 °FMostly cloudy.16 mph80%29.83 "HgN/A
5:03 AM28 °FLight snow. Overcast.15 mph80%29.86 "Hg6 mi
4:58 AM29 °FLight snow. Mostly cloudy.13 mph76%29.82 "HgN/A
3:58 AM29 °FPartly cloudy.14 mph71%29.79 "HgN/A
2:58 AM28 °FOvercast.17 mph69%29.78 "HgN/A
1:58 AM28 °FMostly cloudy.10 mph74%29.77 "HgN/A
12:58 AM28 °FOvercast.8 mph74%29.75 "HgN/A
11:58 PM
Sep 22
28 °FOvercast.7 mph74%29.74 "HgN/A
10:58 PM28 °FOvercast.8 mph74%29.72 "HgN/A
9:58 PM28 °FOvercast.6 mph74%29.69 "HgN/A
8:58 PM30 °FOvercast.7 mph59%29.66 "HgN/A
7:58 PM29 °FOvercast.8 mph72%29.63 "HgN/A
6:58 PM30 °FOvercast.12 mph69%29.58 "HgN/A
Weather by CustomWeather, © 2014

See weather overviewHow to use our weather pages